SCOUT A DEB, 2778

Orbit data source: Space-Track

SCOUT A DEB, 2778 is space debris in LEO originally from a launch on Fri, 14 Apr 1967 UTC launched from the Air Force Western Test Range (AFWTR). Debris objects in space refer to the collection of defunct objects orbiting the Earth. Examples of debris include non-operational satellites, rocket bodies, and fragments generated from explosions, collisions, or faulty payload assembly.

Loading next visibility...
Identifier
2778, 1967-034D
Orbit
LEO
Last TLE update
18 hours ago
Origin
Manufacturer
Unknown
Mission
Spacecraft
Bus & Motor
Unknown
Mass
Unknown
Launch date (UTC)
1967-04-14 (58 years ago)
Launch vehicle
Unknown
Launch site
Air Force Western Test Range (AFWTR)
Object type
Payload
Rocket body
Debris
Shape & HBR
Unknown
Radar Cross Section
Small (<0.1 m²)

Expand to show TLE details & history

TLE from 18 hours ago
0 SCOUT A DEB
1 02778U 67034D   25128.51028013  .00000395  00000-0  72937-3 0  9990
2 02778  89.8401  43.7510 0125590  55.3231   6.6289 13.35095807819153
Epoch: 2025-05-08T12:14Z
Definitive object data (Epoch: 2025-05-08T12:14:48.203Z)
Latitude
62.20777°
Longitude
-6.22778°
Altitude
1,044.71 km
Speed
7.381 km/s
True Right ascension
02h 56m 12s
True Declination
62° 04' 16"
Sunlit
Object was in daylight at TLE epoch
Visualization TLE readout
Latitude
6.57174°
Longitude
-6.52286°
Altitude
1,064.519 km
Speed
7.352 km/s
Apparent Right ascension
02h 35m 42s
Apparent Declination
-14° 46' 17"
Sunlit
Object is in daylight
Visualization observer readout
Local Sidereal Time
14:06:29
Azimuth
343.684° N
Elevation
-64.056°
Doppler factor
1
Orbital elements
Apogee altitude
1,218.902 km
Perigee altitude
1,030.447 km
Semi-major axis
7,502.812 km
Eccentricity
0.012559
Inclination
89.8401°
RAAN
43.751°
Arg. of periapsis
55.3231°
True anomaly
6.79766°
Mean anomaly
6.6289°
Eccentric anomaly
6.71302°
Mean motion
3.3397 °/min
BSTAR
0.00072937
Orbital period
107.79 mins
Loading maneuver chart data...
Loading SW <> Apogee altitude chart data...
Loading historical data...
Loading historical data...
Loading historical data...
Loading historical data...
Loading historical data...
Loading historical data...
Loading historical data...

SCOUT A DEB Visibility forecast

Observer location: undefined°, undefined°

Span
Click to sort rows by Start time (UTC) header in descending order
Start Az.
Max El. time (UTC)
Max El. Az.
Max El.
End time (UTC)
End Az.
13 mins2025-05-09 06:30:44.532Z4.796° NNE2025-05-09 06:36:44.532Z61.979° ENE44.316°2025-05-09 06:43:44.532Z178.668° S
6 mins2025-05-09 08:21:44.532Z310.286° NW2025-05-09 08:23:44.532Z290.253° WNW16.04°2025-05-09 08:27:44.532Z253.641° W
11 mins2025-05-09 18:37:44.532Z174.992° S2025-05-09 18:42:44.532Z151.622° SSE44.873°2025-05-09 18:48:44.532Z358.671° N
|